Hourly Data Report for October 05, 2017

All times are specified in Local Standard Time (LST). Add 1 hour to adjust for Daylight Saving Time where and when it is observed.

DAUPHIN
MANITOBA

51°06'03.000" N
100°03'09.000" W
304.50 m
5040689
71036
YDN

Download Data

Hourly Data (October 2017)
Hourly Data Report for October 5, 2017
Temp Definition
°C
Dew Point Temp Definition
°C
Rel Hum Definition
%
Wind Dir Definition
10's deg

Wind Spd Definition
km/h
Visibility Definition
km
Stn Press Definition
kPa
Hmdx Definition


Wind Chill Definition


Weather Definition


TIME
00:00 Legend Double Dagger 1.4 0.4 93 25 11 16.1 98.39     LegendNANA
01:00 Legend Double Dagger 1.6 0.6 93 26 11 16.1 98.43     LegendNANA
02:00 Legend Double Dagger 0.6 0.0 96 24 11 16.1 98.46     LegendNANA
03:00 Legend Double Dagger 0.8 0.2 96 24 11 16.1 98.46     LegendNANA
04:00 Legend Double Dagger -0.3 -0.7 97 26 13 16.1 98.49   -4 LegendNANA
05:00 Legend Double Dagger -0.1 -0.7 96 26 13 16.1 98.50   -4 LegendNANA
06:00 Legend Double Dagger -0.4 -0.8 97 25 13 16.1 98.49   -5 LegendNANA
07:00 Legend Double Dagger 0.0 -0.6 96 26 15 16.1 98.51   -4 LegendNANA
08:00 Legend Double Dagger 2.3 1.0 91 26 13 16.1 98.51     LegendNANA
09:00 Legend Double Dagger 5.9 2.9 81 26 9 16.1 98.52     LegendNANA
10:00 Legend Double Dagger 8.6 1.3 60 29 9 16.1 98.55     LegendNANA
11:00 Legend Double Dagger 10.1 0.4 51 30 11 16.1 98.51     LegendNANA
12:00 Legend Double Dagger 11.5 0.9 48 29 13 16.1 98.44     LegendNANA
13:00 Legend Double Dagger 13.0 -0.3 40 27 17 16.1 98.36     LegendNANA
14:00 Legend Double Dagger 14.0 0.6 40 28 18 16.1 98.30     LegendNANA
15:00 Legend Double Dagger 14.3 0.5 39 29 22 16.1 98.23     LegendNANA
16:00 Legend Double Dagger 14.3 1.4 41 30 17 16.1 98.20     LegendNANA
17:00 Legend Double Dagger 13.3 2.0 46 29 17 16.1 98.15     LegendNANA
18:00 Legend Double Dagger 10.3 2.2 57 28 13 16.1 98.13     LegendNANA
19:00 Legend Double Dagger 7.5 1.6 66 25 13 16.1 98.11     LegendNANA
20:00 Legend Double Dagger 5.8 1.2 72 23 11 16.1 98.06     LegendNANA
21:00 Legend Double Dagger 7.3 1.2 65 22 17 16.1 98.00     LegendNANA
22:00 Legend Double Dagger 6.6 0.9 67 22 15 16.1 97.96     LegendNANA
23:00 Legend Double Dagger 7.6 0.4 60 22 21 16.1 97.90     LegendNANA

Notes on Data Quality.

Legend

  • E = Estimated
  • M = Missing
  • NA = Not Available
  • ‡ = Partner data that is not subject to review by the National Climate Archives
Date modified: